Powrót do katalogu

FENGYUN 1C DEB

AktywnyPO
NORAD 31540·DEBRIS·🇨🇳 China

Wystrzelony May 10, 1999 z Taiyuan Satellite Launch Center

Loading…

Następne Przeloty (najbliższe 24 godziny)

TLE

ŚwieżeSource: Space-Track

Epoka: Sep 11, 2026, 18:57 UTC

1 31540U 99025BYF 26254.78995559  .00004039  00000-0  57231-3 0  9991
2 31540  99.0690  88.1524 0169595 180.2227 179.8927 14.68290143 22907

Śledź FENGYUN 1C DEB w czasie rzeczywistym z AllMySat

Download on the App Store